Location: Oroua River
(40.4333°S, 175.4333°E)
Time: 14:58:47
(UTC+00:00)

SL-16 R/B - Pass Details

Date: 03 February 2023
Orbit: 986 x 1006 km, 99.6° (Epoch: 22 March)

Event Time Altitude Azimuth Distance (km) Brightness Sun altitude
Rises 15:10:01 0° 163° (SSE) 3,749 6.7 -22.3°
Reaches altitude 10° 15:12:33 10° 160° (SSE) 2,790 5.9 -22.0°
Maximum altitude 15:18:47 66° 77° (ENE) 1,084 2.8 -21.2°
Enters shadow 15:22:36 24° 1° (N) 1,907 3.6 -20.7°
